Wind_Speed
7 7 6 6 5 3 2 1 2 4 6 8 9 10 10 10 10 10 10 10 10 10 10 10 9 8 7 7 6 6 6 5 4 4 3 3 2 2 2 1 1 1 0 1 1 1 1 2 2
8 8 8 7 5 3 2 1 2 3 7 8 9 9 9 9 9 9 9 10 10 10 10 9 9 8 8 7 5 5 5 5 4 3 3 3 3 2 2 2 2 2 1 1 1 1 1 2 2
9 9 9 7 5 4 4 3 3 4 7 8 9 9 9 8 7 8 9 10 9 9 9 9 9 8 8 7 5 5 5 4 4 4 3 3 3 3 2 2 2 2 1 2 2 2 2 2 2
10 10 9 8 6 5 5 3 3 6 8 9 9 9 8 7 8 8 9 9 9 9 9 8 9 8 8 7 6 5 5 4 4 4 4 4 3 3 3 2 2 2 2 2 3 3 3 3 2
11 11 10 9 7 5 5 4 6 7 8 9 9 9 9 8 8 8 9 10 9 9 9 9 9 8 8 8 7 5 5 5 4 4 4 4 4 4 3 3 3 2 2 2 2 3 3 3 3
12 11 11 10 8 6 5 5 7 7 8 9 9 9 9 8 8 8 9 9 9 9 9 9 9 8 8 8 7 6 5 5 4 4 4 4 4 4 4 3 3 3 3 3 2 3 3 3 3
12 12 12 11 8 7 6 6 9 8 9 10 10 10 10 9 8 9 9 10 9 9 9 8 8 8 8 8 8 6 5 5 5 5 5 5 4 4 3 3 3 3 3 3 3 3 3 3 3
15 14 12 12 10 8 7 8 10 9 9 11 11 11 10 10 9 8 9 10 10 9 9 9 8 8 8 8 8 7 5 5 5 5 5 5 4 4 3 3 3 3 3 3 3 2 3 3 3
15 14 14 13 12 10 10 9 9 9 10 11 11 11 11 10 10 9 10 10 9 9 9 9 9 9 9 8 8 7 6 5 5 5 5 5 4 4 3 3 3 3 3 4 3 3 3 3 3
16 15 15 15 14 13 12 10 10 11 12 12 11 10 10 10 9 10 10 9 9 9 10 10 10 10 9 8 8 8 7 6 6 6 6 6 5 4 4 3 3 3 3 3 3 3 3 3 3
18 17 17 17 15 15 14 13 12 12 13 13 12 11 10 10 10 10 10 9 9 9 10 10 10 11 10 9 8 8 7 6 6 6 6 6 5 4 4 4 3 3 3 3 3 4 4 4 4
19 18 19 18 18 18 17 15 14 13 14 14 13 12 11 11 11 11 10 9 9 10 10 11 11 11 10 10 9 8 7 7 6 6 6 6 5 5 4 4 3 3 3 3 3 4 4 4 4
20 19 20 20 19 19 18 16 16 16 14 14 13 12 12 12 11 11 11 10 10 10 10 11 11 11 10 10 10 8 8 7 7 6 6 6 6 5 5 4 3 3 4 4 4 4 4 4 4
20 21 21 20 20 19 18 18 17 17 15 15 14 13 13 13 12 12 11 11 11 11 11 11 11 12 12 11 10 9 9 8 7 7 7 7 7 7 6 5 5 4 4 4 4 4 4 4 4
21 20 19 19 18 18 19 19 17 16 16 15 14 13 13 13 13 13 13 12 12 12 12 12 12 12 13 13 11 9 9 8 8 8 7 7 7 7 7 6 6 5 5 5 5 5 5 5 4
20 20 18 17 17 17 19 18 17 17 16 15 15 14 13 13 13 13 13 13 13 12 12 12 12 13 13 13 11 10 10 9 9 9 8 8 8 8 8 7 7 6 7 6 6 6 5 5 5
19 18 18 17 17 17 18 17 16 16 16 15 14 14 14 13 13 13 14 13 13 13 12 13 13 13 13 13 12 12 11 10 10 10 9 9 9 9 8 8 7 7 7 7 7 6 6 5 6
18 18 19 18 17 17 18 18 18 16 15 15 15 14 15 14 13 13 14 14 14 13 13 14 13 13 13 14 13 12 11 11 10 10 9 9 9 9 9 8 8 8 7 7 7 7 7 7 6
19 19 19 18 18 18 18 18 18 18 17 16 17 16 15 16 15 14 15 15 15 15 14 14 14 12 12 13 13 12 11 10 11 10 9 9 8 8 8 8 8 7 7 8 8 7 7 7 7
20 19 18 18 16 17 18 18 18 19 18 17 17 17 17 17 16 16 16 17 16 14 14 14 14 13 12 12 12 12 11 10 10 10 10 9 8 8 8 8 8 8 8 8 8 8 9 9 9
20 19 19 18 17 19 20 20 20 20 19 18 18 18 18 17 16 17 17 17 17 15 15 15 14 14 14 13 13 12 11 10 10 10 10 10 10 9 9 9 9 9 9 9 9 9 9 9 9
19 19 19 19 20 20 21 21 20 21 20 19 19 19 19 18 18 18 18 17 17 16 15 15 15 14 13 13 13 12 11 11 10 10 10 10 10 11 11 11 11 10 10 10 10 10 10 9 10
19 19 20 20 21 21 21 22 21 21 21 20 20 20 20 19 19 18 18 17 16 15 15 15 14 13 13 13 13 12 11 10 10 10 10 10 10 12 12 12 11 10 10 10 10 10 10 10 10
18 20 21 22 23 23 22 23 22 21 19 19 19 20 20 19 19 19 18 18 16 15 16 15 14 12 12 12 12 11 11 10 10 10 10 10 11 11 11 12 12 12 11 11 11 11 12 12 12
20 20 22 24 25 23 22 23 20 19 19 19 19 19 20 19 18 18 18 17 17 16 16 14 13 13 12 12 12 11 11 11 11 11 11 11 11 11 12 12 12 12 11 12 12 13 13 13 13
19 20 21 23 24 23 23 23 20 19 18 18 18 19 19 19 19 19 19 17 17 15 15 14 14 13 13 13 13 12 12 11 12 12 11 11 11 11 11 11 12 13 13 13 14 14 14 15 15
21 20 20 22 23 23 24 23 21 18 16 18 19 19 20 19 20 20 19 16 15 15 15 15 13 13 14 14 13 13 12 12 12 12 12 12 11 11 12 12 12 13 13 14 15 15 15 16 16
20 21 22 23 24 24 24 23 21 19 18 18 19 20 20 20 19 19 19 18 16 17 17 16 15 15 15 14 14 13 13 13 13 13 13 13 13 13 13 13 14 14 15 16 16 17 17 16 16
21 22 23 23 24 24 23 22 21 20 19 19 19 20 20 19 19 19 20 18 18 18 17 17 16 15 15 15 14 14 14 14 13 14 14 14 14 14 14 15 15 15 16 16 17 18 18 18 18
21 21 24 25 25 24 24 21 19 19 19 19 20 19 19 18 19 19 18 18 18 19 18 17 17 16 16 16 15 15 14 14 14 14 14 14 14 14 15 15 16 16 17 17 18 18 18 19 19
Wind_Direction
172 166 162 158 148 148 148 92 333 341 351 345 340 341 347 353 358 2 3 2 9 15 14 14 15 16 17 16 12 13 9 9 12 12 4 354 350 347 337 322 328 335 281 165 140 130 128 136 153
180 176 170 163 165 178 177 212 276 317 338 340 332 334 341 348 351 354 356 358 2 8 9 11 13 15 18 14 10 14 13 11 8 3 359 351 338 330 327 320 326 323 260 208 205 189 169 159 162
190 188 178 168 177 197 211 251 290 321 331 334 330 330 337 348 350 351 353 355 357 1 4 9 13 12 13 11 6 7 6 4 4 357 351 345 339 329 323 321 321 316 272 242 223 214 200 189 197
197 194 184 180 188 206 240 275 298 323 323 328 329 331 333 344 348 349 352 354 356 360 1 6 11 10 8 6 1 358 355 356 359 355 347 341 332 326 325 323 318 305 282 248 231 233 225 214 221
200 192 187 189 204 224 251 275 292 306 310 317 322 324 330 340 343 350 355 357 357 359 358 358 2 5 3 1 354 349 346 345 346 343 342 338 334 327 320 316 307 291 284 252 238 234 232 224 223
203 196 195 201 216 234 246 278 287 299 308 313 315 318 330 337 341 350 353 353 355 354 351 351 355 358 359 358 355 347 340 335 334 335 338 333 329 319 313 310 296 292 280 251 239 237 224 217 219
205 204 205 209 223 239 250 275 287 295 302 310 317 316 324 328 339 346 349 349 349 348 347 345 348 349 349 349 348 347 341 330 325 329 328 327 322 319 313 301 299 299 286 264 244 235 231 222 217
211 207 204 210 224 236 252 267 275 287 297 301 310 315 321 322 326 338 345 346 345 343 345 345 344 344 341 343 344 341 334 330 322 320 320 318 319 320 321 313 308 300 296 285 262 238 227 222 214
217 209 205 209 221 233 244 253 269 287 295 299 306 312 318 321 325 332 340 342 339 338 341 341 339 340 340 339 340 339 332 331 327 321 313 311 313 314 316 320 313 306 296 286 261 232 224 218 223
217 211 207 212 220 231 241 250 267 282 289 293 302 306 312 316 322 327 332 335 335 332 333 335 333 332 332 331 331 332 331 331 327 323 314 310 307 304 308 313 311 301 287 278 264 249 258 251 246
218 216 211 215 221 230 238 246 257 273 283 288 294 302 305 307 314 319 325 328 328 325 324 328 329 328 325 323 321 325 324 321 321 321 320 314 304 300 302 302 304 305 297 282 271 276 265 257 255
220 219 218 219 224 228 234 241 252 264 276 283 287 291 292 296 305 312 319 322 319 318 320 320 319 319 319 319 316 317 321 315 309 310 310 307 302 297 299 300 303 301 301 296 275 267 263 250 245
223 225 226 223 228 230 234 241 247 256 267 274 279 286 292 293 298 306 310 312 313 315 315 316 316 316 314 313 309 307 309 305 302 303 302 295 291 289 292 291 291 287 284 282 280 271 264 255 246
226 229 232 232 230 236 239 242 246 250 259 267 277 284 290 295 300 302 303 306 307 308 311 312 315 310 310 307 301 297 296 294 294 292 296 290 285 282 284 280 277 278 275 270 276 275 261 254 254
227 230 233 233 232 235 241 245 247 252 257 264 275 282 287 293 296 298 298 301 304 307 309 309 310 310 310 305 296 293 291 289 287 287 288 284 279 278 272 273 274 269 269 267 273 271 264 263 260
228 229 228 227 232 236 243 246 250 253 258 264 272 277 282 286 290 293 294 298 302 305 308 306 307 307 306 304 294 293 295 287 281 279 283 282 278 273 268 267 269 265 266 268 273 275 266 271 270
229 227 224 223 229 235 241 248 250 252 260 265 272 278 281 285 289 292 292 292 294 298 303 304 303 303 302 302 298 292 292 285 281 276 281 281 278 272 266 262 260 262 264 261 259 264 267 265 268
230 229 226 224 226 233 239 247 248 249 258 266 274 279 282 287 290 292 292 290 290 292 295 298 299 300 299 299 296 291 289 285 280 279 281 282 280 275 267 259 256 255 255 254 256 264 265 265 271
229 228 227 224 227 235 240 246 243 248 253 261 269 276 281 286 289 289 288 287 289 292 295 296 295 299 299 298 294 290 289 284 275 272 273 276 280 274 265 257 253 252 250 253 259 263 265 270 275
227 226 224 224 229 239 244 243 245 242 247 255 262 268 275 281 284 286 288 283 285 289 293 295 295 295 296 297 296 289 285 279 273 269 269 271 269 266 266 261 261 260 260 261 261 266 270 270 270
228 227 225 228 231 238 243 242 240 240 244 250 257 265 273 278 280 281 284 284 284 288 291 297 293 295 295 295 293 292 284 274 273 268 269 267 265 264 264 262 263 259 258 261 260 263 266 267 267
230 229 230 231 233 237 239 241 237 242 247 252 258 265 271 273 276 278 282 284 284 284 286 290 289 290 292 292 288 286 283 279 274 268 268 270 269 267 265 263 261 258 259 259 262 264 269 267 269
231 228 228 229 233 236 237 242 240 242 249 254 259 265 270 273 274 275 279 283 280 278 281 284 284 284 286 288 288 284 280 280 275 270 268 269 271 270 264 261 257 256 259 262 266 267 268 269 272
230 229 227 228 233 236 238 242 242 242 249 255 260 263 268 269 270 272 275 279 275 273 276 277 277 279 282 285 284 280 277 277 278 274 270 269 268 267 262 258 255 257 259 260 265 267 268 269 270
229 229 228 228 232 237 239 243 245 246 250 257 262 267 270 269 269 272 275 275 273 270 272 271 272 273 277 279 278 274 275 277 275 277 273 268 265 264 262 263 263 263 261 261 265 266 265 269 271
230 230 232 232 235 237 241 245 249 251 252 257 263 269 271 270 269 269 272 272 272 270 270 268 271 273 275 276 274 271 272 274 272 268 270 272 267 264 266 269 268 265 262 263 266 266 265 267 270
230 230 232 234 237 241 242 245 250 250 253 256 261 267 270 273 269 267 267 268 270 269 265 266 269 271 272 273 274 271 272 274 272 269 268 268 271 271 269 269 271 270 266 267 267 268 266 267 270
234 232 230 234 238 241 242 244 249 251 255 263 268 269 274 274 273 273 271 270 268 270 267 265 268 269 268 269 269 268 270 271 271 270 269 271 269 272 272 270 271 271 269 268 268 268 267 268 271
232 232 236 237 238 241 243 246 250 252 253 258 263 269 272 272 272 272 272 275 275 269 267 265 267 266 265 266 265 265 265 267 269 269 271 274 273 275 275 273 274 273 273 269 268 270 268 267 269
235 236 237 238 239 242 246 250 252 253 253 256 259 264 268 271 271 271 272 273 274 274 269 269 269 267 264 265 266 266 267 271 273 272 273 273 274 276 278 278 277 274 272 271 270 272 271 270 271
Height
5905 5906 5906 5907 5908 5907 5906 5906 5905 5905 5905 5905 5904 5903 5902 5902 5902 5902 5898 5896 5894 5892 5891 5889 5888 5887 5886 5885 5885 5884 5883 5882 5882 5881 5881 5880 5880 5879 5879 5878 5878 5877 5877 5877 5877 5876 5876 5876 5876
5904 5905 5906 5907 5906 5906 5906 5905 5905 5905 5905 5904 5904 5903 5903 5902 5901 5899 5897 5896 5894 5892 5891 5890 5889 5888 5887 5886 5885 5884 5884 5883 5882 5882 5881 5880 5880 5880 5879 5879 5878 5877 5876 5876 5877 5877 5876 5876 5876
5903 5904 5905 5905 5904 5905 5905 5904 5904 5904 5904 5904 5903 5903 5902 5902 5900 5899 5897 5896 5894 5893 5892 5891 5889 5888 5887 5886 5886 5885 5884 5883 5883 5882 5881 5881 5880 5880 5879 5879 5878 5877 5877 5876 5876 5876 5876 5876 5876
5903 5903 5904 5904 5903 5903 5903 5904 5903 5904 5904 5904 5903 5903 5901 5901 5900 5899 5897 5896 5894 5893 5892 5891 5890 5889 5888 5887 5886 5885 5884 5884 5883 5882 5881 5881 5880 5880 5879 5878 5878 5877 5877 5876 5876 5876 5876 5876 5876
5901 5902 5903 5902 5902 5902 5902 5903 5902 5903 5903 5903 5903 5902 5901 5901 5899 5898 5897 5895 5894 5893 5892 5891 5890 5889 5888 5887 5886 5885 5884 5884 5883 5882 5881 5881 5880 5879 5879 5878 5878 5877 5877 5876 5876 5876 5876 5876 5876
5900 5901 5902 5901 5901 5901 5901 5902 5902 5902 5902 5903 5902 5902 5900 5900 5898 5897 5897 5896 5894 5893 5892 5891 5890 5889 5888 5887 5886 5885 5884 5883 5883 5882 5881 5880 5880 5879 5878 5878 5877 5877 5876 5876 5875 5875 5875 5875 5876
5898 5899 5899 5900 5900 5900 5901 5901 5900 5901 5901 5902 5901 5900 5899 5899 5898 5897 5896 5895 5894 5893 5892 5891 5889 5888 5888 5887 5885 5884 5883 5883 5882 5881 5881 5880 5879 5878 5878 5877 5877 5876 5876 5875 5875 5874 5875 5875 5875
5895 5897 5897 5898 5899 5899 5899 5899 5899 5899 5899 5900 5900 5899 5899 5898 5897 5897 5896 5894 5893 5892 5891 5890 5889 5888 5887 5886 5885 5884 5883 5882 5881 5880 5880 5879 5878 5878 5877 5877 5876 5876 5875 5875 5874 5874 5874 5874 5874
5893 5896 5895 5896 5897 5897 5896 5897 5897 5897 5898 5898 5898 5898 5898 5897 5896 5896 5895 5894 5892 5891 5891 5890 5888 5887 5886 5885 5884 5883 5882 5881 5880 5880 5879 5878 5878 5877 5876 5876 5875 5875 5874 5874 5873 5873 5873 5873 5874
5891 5892 5893 5894 5894 5894 5894 5895 5895 5895 5896 5896 5897 5897 5897 5896 5895 5895 5895 5894 5892 5891 5890 5889 5888 5886 5885 5884 5883 5882 5881 5880 5879 5879 5878 5877 5877 5876 5876 5875 5875 5874 5874 5873 5872 5872 5873 5873 5873
5887 5889 5890 5891 5891 5891 5892 5893 5893 5893 5894 5895 5895 5895 5895 5895 5895 5894 5893 5893 5891 5890 5889 5887 5886 5885 5884 5883 5882 5881 5880 5879 5878 5878 5877 5876 5876 5875 5875 5874 5873 5873 5873 5872 5872 5872 5872 5872 5873
5884 5886 5887 5888 5888 5889 5889 5890 5891 5891 5893 5893 5893 5893 5893 5893 5893 5893 5892 5891 5890 5889 5887 5886 5884 5883 5882 5881 5880 5879 5878 5878 5877 5876 5875 5875 5875 5874 5874 5873 5873 5872 5872 5871 5871 5871 5871 5871 5871
5881 5883 5884 5885 5885 5886 5887 5888 5889 5889 5890 5890 5890 5891 5891 5891 5891 5891 5890 5889 5888 5887 5886 5885 5883 5881 5880 5879 5878 5877 5876 5875 5875 5874 5874 5873 5873 5873 5873 5872 5872 5871 5871 5871 5870 5870 5870 5870 5870
5877 5878 5880 5881 5882 5883 5884 5885 5886 5886 5887 5888 5888 5889 5889 5888 5888 5888 5888 5887 5886 5885 5884 5883 5881 5879 5878 5877 5876 5875 5874 5873 5873 5873 5872 5872 5871 5871 5871 5871 5870 5870 5870 5869 5869 5869 5869 5869 5869
5873 5875 5877 5878 5879 5880 5881 5882 5883 5884 5884 5885 5886 5886 5886 5886 5886 5886 5885 5884 5883 5882 5881 5880 5878 5877 5875 5874 5873 5872 5872 5871 5870 5870 5870 5869 5869 5869 5869 5869 5869 5868 5868 5868 5868 5868 5868 5869 5868
5869 5871 5873 5875 5876 5877 5879 5879 5880 5880 5881 5882 5883 5883 5884 5884 5884 5883 5882 5882 5881 5879 5878 5877 5876 5874 5873 5872 5871 5870 5869 5868 5868 5867 5867 5867 5867 5867 5867 5867 5867 5867 5867 5867 5867 5866 5867 5867 5867
5865 5867 5869 5871 5872 5873 5874 5875 5877 5877 5877 5879 5880 5880 5881 5881 5881 5881 5879 5879 5878 5877 5875 5874 5873 5872 5871 5869 5868 5867 5867 5866 5865 5865 5864 5864 5864 5864 5865 5865 5865 5865 5865 5865 5865 5865 5865 5865 5865
5861 5863 5865 5866 5868 5869 5870 5871 5873 5873 5874 5875 5876 5877 5877 5877 5878 5878 5876 5875 5874 5873 5873 5871 5870 5869 5868 5866 5865 5864 5863 5863 5863 5862 5862 5862 5862 5862 5862 5862 5862 5863 5863 5863 5863 5863 5863 5863 5863
5856 5858 5860 5862 5863 5864 5865 5867 5868 5869 5870 5871 5872 5873 5873 5874 5874 5874 5873 5871 5871 5870 5869 5868 5867 5866 5864 5863 5862 5861 5860 5860 5860 5860 5860 5859 5859 5859 5859 5860 5860 5860 5860 5860 5861 5861 5861 5861 5861
5850 5852 5855 5857 5858 5859 5860 5862 5863 5864 5865 5867 5867 5868 5870 5870 5870 5870 5869 5867 5867 5866 5866 5864 5862 5862 5861 5860 5859 5859 5858 5857 5857 5857 5857 5857 5857 5857 5857 5857 5857 5858 5858 5858 5858 5859 5859 5859 5859
5845 5848 5850 5852 5853 5854 5856 5857 5858 5859 5860 5862 5863 5864 5865 5866 5866 5866 5865 5864 5863 5862 5862 5861 5859 5858 5858 5857 5856 5856 5855 5854 5854 5854 5854 5854 5854 5854 5854 5854 5855 5855 5855 5855 5855 5855 5856 5856 5856
5841 5844 5846 5847 5848 5849 5851 5852 5854 5855 5856 5857 5858 5860 5860 5861 5861 5861 5861 5860 5859 5857 5857 5856 5856 5855 5854 5853 5853 5852 5852 5851 5851 5851 5851 5851 5851 5851 5851 5851 5851 5852 5852 5852 5852 5852 5852 5853 5853
5837 5839 5841 5842 5843 5845 5846 5847 5850 5850 5851 5853 5854 5855 5856 5856 5856 5856 5856 5855 5854 5853 5852 5852 5852 5851 5850 5850 5849 5849 5848 5848 5847 5847 5847 5847 5848 5848 5848 5848 5848 5848 5849 5849 5849 5849 5849 5849 5849
5832 5834 5835 5837 5838 5840 5842 5842 5844 5846 5847 5848 5849 5850 5851 5850 5851 5851 5851 5850 5849 5849 5848 5848 5847 5847 5847 5846 5846 5845 5845 5844 5844 5844 5843 5844 5844 5844 5844 5844 5844 5844 5845 5845 5846 5846 5846 5846 5846
5827 5829 5830 5831 5832 5835 5837 5837 5840 5842 5843 5844 5845 5845 5845 5845 5845 5846 5846 5846 5846 5845 5844 5844 5843 5843 5843 5843 5842 5841 5841 5841 5841 5840 5840 5840 5840 5841 5841 5841 5841 5841 5842 5842 5842 5842 5842 5842 5842
5822 5824 5826 5828 5829 5831 5832 5832 5836 5837 5838 5839 5840 5840 5840 5841 5841 5841 5841 5841 5841 5841 5840 5840 5839 5839 5839 5838 5838 5838 5837 5837 5837 5837 5837 5837 5837 5837 5837 5837 5838 5838 5838 5838 5838 5838 5838 5838 5838
5818 5819 5822 5823 5824 5826 5827 5829 5830 5831 5833 5833 5834 5834 5835 5835 5835 5836 5836 5836 5836 5836 5836 5835 5835 5835 5835 5834 5834 5834 5833 5833 5833 5833 5833 5833 5833 5834 5834 5834 5834 5834 5834 5834 5834 5834 5834 5834 5834
5814 5815 5817 5818 5819 5821 5823 5824 5826 5827 5828 5829 5829 5829 5829 5830 5830 5831 5831 5831 5831 5832 5831 5830 5831 5831 5830 5830 5830 5830 5830 5829 5829 5829 5829 5829 5830 5830 5830 5830 5830 5830 5830 5829 5829 5829 5829 5829 5829
5809 5811 5811 5813 5814 5816 5817 5821 5822 5823 5823 5824 5824 5824 5824 5825 5825 5826 5826 5826 5826 5825 5825 5826 5826 5825 5826 5825 5825 5825 5825 5825 5825 5825 5825 5826 5826 5826 5826 5826 5826 5826 5825 5824 5824 5824 5824 5824 5824
5804 5805 5807 5809 5810 5811 5813 5818 5817 5817 5819 5819 5819 5819 5819 5820 5820 5821 5821 5821 5820 5820 5820 5820 5820 5820 5821 5821 5821 5821 5820 5820 5820 5820 5821 5821 5822 5822 5821 5821 5821 5821 5820 5820 5819 5819 5819 5819 5819